SCP
2 1 1 1 1 2 3 3 4 4 3 3 2 2 1 1 1 1 2 2 2 2 2 3 3 4 3 3 3 2 2 2 2 2 1 1 1 2 2 1 1 1 1
1 1 1 1 1 2 2 3 3 3 3 3 2 2 1 1 1 1 1 1 1 1 2 2 3 3 3 3 3 3 2 2 2 2 1 1 1 1 1 1 1 1 1
1 1 1 1 1 1 1 2 2 2 3 3 2 2 1 1 1 1 1 1 1 1 1 2 3 3 3 4 3 3 2 2 2 2 1 1 1 1 1 1 1 1 1
1 1 1 1 1 1 1 1 1 2 2 2 2 2 1 1 1 1 1 1 1 1 1 2 2 3 3 4 4 3 3 2 2 2 1 1 1 1 1 1 1 1 2
1 1 1 1 1 1 1 1 1 1 1 2 1 1 1 1 1 1 1 1 1 1 1 1 2 3 3 4 4 3 3 2 2 2 1 1 1 1 1 1 2 2 2
1 1 1 1 1 1 1 1 1 1 1 1 1 1 1 1 1 1 1 1 1 1 1 1 2 2 3 3 4 3 3 3 2 2 2 1 1 1 1 1 2 2 2
0 1 1 1 1 1 1 1 1 1 1 1 1 1 1 1 1 1 1 1 1 1 1 1 1 2 3 3 3 3 3 3 3 2 2 2 1 1 1 1 1 2 1
1 1 1 1 1 2 2 2 2 1 1 1 1 1 1 1 1 1 1 1 1 1 1 1 1 2 2 3 3 3 3 3 3 2 2 2 2 2 2 2 2 1 1
1 1 1 1 2 2 2 2 2 2 2 2 2 1 1 1 1 1 1 1 1 1 1 1 2 2 2 3 3 3 2 3 2 3 3 2 2 2 2 2 2 1 1
1 1 1 1 2 2 2 2 2 3 3 3 3 2 2 1 1 1 1 1 1 1 1 1 2 2 2 2 3 2 2 2 2 2 3 3 2 2 2 2 2 1 1
1 1 1 1 2 2 2 2 2 3 3 3 3 3 3 2 2 2 1 1 1 1 2 2 2 2 2 2 2 2 1 1 2 2 2 2 2 2 2 2 2 1 1
1 1 1 2 2 2 2 2 2 3 3 3 4 4 4 4 3 3 2 2 1 1 2 2 2 2 2 2 2 2 1 1 1 1 2 2 2 2 2 2 1 1 1
1 1 1 2 2 2 2 2 3 3 3 3 3 4 5 5 4 4 3 3 2 2 2 2 2 2 2 2 2 1 1 1 1 1 1 1 1 1 1 2 1 1 1
1 1 1 1 1 2 2 2 2 3 3 3 3 4 4 5 5 5 4 3 3 2 2 2 2 2 2 2 2 1 1 1 1 0 0 0 0 1 1 1 1 1 1
1 1 1 1 1 1 2 2 2 2 3 3 3 3 4 4 5 5 4 4 3 3 2 2 2 2 2 2 1 1 1 1 0 0 0 0 0 0 1 1 1 1 1
1 2 2 2 2 2 2 2 2 3 3 3 3 3 4 4 4 4 4 4 3 3 3 3 2 1 1 1 1 1 1 1 1 0 0 0 0 0 1 1 1 1 1
2 2 2 2 2 2 2 3 3 3 4 4 3 3 3 3 4 4 4 4 4 3 4 4 2 1 1 1 1 1 1 1 1 0 0 0 0 0 0 0 0 0 0
2 2 2 2 2 2 3 3 4 4 4 4 3 2 2 3 3 4 4 4 4 3 4 4 2 1 1 1 1 2 2 1 1 1 0 0 0 0 0 0 0 0 0
2 2 2 2 3 3 3 4 4 5 4 4 3 2 2 3 3 4 4 4 4 4 3 3 2 2 1 1 1 2 2 2 1 1 1 0 0 0 0 0 0 0 0
2 2 3 3 3 4 4 5 5 5 5 4 3 3 3 3 3 4 3 3 4 4 3 3 3 2 1 1 1 2 2 2 2 1 1 1 1 0 0 0 0 0 0
3 3 3 3 3 4 5 5 6 6 5 4 4 4 3 3 3 3 3 3 3 3 3 3 3 2 2 1 2 2 2 3 2 1 1 1 1 1 1 1 0 0 0
4 4 4 4 4 4 4 4 5 5 5 5 5 4 4 3 3 2 2 2 2 3 3 3 3 3 2 2 2 2 2 3 2 1 1 1 2 2 2 1 1 0 0
5 5 5 4 4 4 3 3 4 4 5 6 6 5 4 3 2 2 2 2 2 2 3 4 3 3 3 3 2 2 2 2 2 1 1 1 2 2 2 1 1 0 0
6 6 6 6 5 4 3 3 3 4 5 6 7 6 4 3 2 2 2 2 2 2 2 3 3 3 3 3 2 2 2 1 1 1 1 1 1 1 1 1 1 0 0
7 7 6 6 5 4 4 4 4 5 6 6 6 5 4 3 2 2 2 3 3 3 2 2 2 2 2 2 2 2 2 2 2 1 1 1 1 1 1 2 1 1 0
8 7 6 5 4 4 4 4 4 5 6 6 5 4 3 2 1 2 2 3 3 3 2 1 1 1 1 1 1 1 2 2 2 2 1 1 1 1 1 2 2 1 1
Wind_Speed
2 2 2 2 1 1 1 1 1 1 1 1 1 1 1 1 1 2 3 7 7 7 8 8 8 8 9 8 9 9 10 9 9 9 9 9 9 9 9 8 8 7 7
2 1 2 2 2 2 2 1 0 1 1 0 1 0 1 1 1 1 2 5 8 8 8 8 8 8 8 8 9 10 10 9 9 9 9 8 8 8 9 8 8 8 7
2 1 2 2 2 2 1 1 1 1 1 1 1 0 0 0 0 1 1 2 5 8 8 7 7 6 7 8 8 9 9 9 8 8 8 8 8 8 8 8 8 8 7
2 2 2 2 2 1 2 1 1 1 1 1 1 1 1 1 1 1 1 2 2 3 7 8 6 5 6 6 7 8 9 8 8 8 7 7 7 8 8 8 8 8 7
2 2 2 2 1 2 2 2 3 2 1 1 1 1 1 1 1 1 1 1 2 3 3 8 8 6 5 6 6 8 8 9 9 9 8 8 7 7 8 8 8 7 7
3 2 1 2 2 1 2 2 2 2 1 1 1 2 1 1 1 1 0 1 2 3 3 4 5 7 7 6 6 7 8 8 8 8 8 8 8 7 7 7 8 7 7
3 2 2 2 2 2 2 2 2 1 1 1 1 1 2 2 2 1 1 1 1 2 3 3 2 2 5 8 7 7 7 7 7 7 7 7 7 8 7 7 7 7 7
3 2 3 2 3 2 2 2 2 2 2 1 2 1 1 2 2 2 1 1 1 1 2 3 3 3 2 3 7 7 7 7 7 7 7 6 7 7 7 7 7 7 8
3 3 3 3 2 2 2 2 2 2 1 1 2 3 2 1 1 2 2 1 1 1 1 2 3 3 3 2 4 7 6 5 6 6 6 6 6 6 7 7 7 7 8
3 3 2 2 2 2 2 2 2 2 2 1 1 1 2 2 2 1 2 2 1 1 1 1 2 3 3 2 3 5 5 4 4 4 4 5 5 5 6 7 7 7 7
2 2 2 2 2 2 2 3 2 3 2 3 2 1 1 0 1 1 0 1 1 1 1 2 2 2 3 2 3 5 5 4 3 2 2 3 4 5 5 6 7 7 7
2 2 2 2 2 2 2 2 2 2 3 3 3 2 1 1 1 0 0 1 0 0 1 1 1 2 2 2 3 6 5 4 2 2 1 1 2 3 5 5 6 6 6
1 2 2 2 2 2 2 2 2 3 2 2 3 2 2 1 1 1 1 0 1 1 1 1 1 1 2 2 3 6 5 4 2 2 1 1 1 2 3 4 5 5 5
2 2 1 2 2 2 2 2 2 1 2 2 2 3 2 1 1 1 1 1 1 1 1 0 1 1 1 1 3 4 4 6 3 2 2 1 1 1 2 3 4 4 4
0 0 1 2 2 2 2 2 2 2 2 2 2 2 2 1 1 1 1 2 2 2 1 1 1 1 1 1 2 3 3 6 5 3 3 2 2 2 2 3 3 4 4
1 1 1 1 2 2 2 2 2 1 1 1 2 2 2 2 1 1 1 1 2 2 2 0 0 1 1 0 2 2 2 7 6 5 4 3 3 3 3 2 3 3 4
0 1 1 1 2 2 2 2 2 1 2 2 2 1 2 2 2 1 1 1 1 2 2 1 0 1 1 1 1 2 3 3 4 7 5 4 3 3 3 3 3 3 3
0 0 1 2 2 1 2 2 2 2 2 2 2 2 2 1 2 2 2 1 1 1 2 1 1 1 1 1 2 3 2 2 2 8 8 5 4 3 3 3 3 3 3
0 0 1 1 2 2 2 2 2 2 2 3 3 3 2 2 2 1 2 2 1 2 2 2 2 1 1 1 2 2 2 2 3 5 8 8 6 5 4 4 3 3 3
1 0 0 1 2 2 2 2 2 2 2 3 3 3 3 2 2 2 2 2 2 2 2 2 2 1 1 1 2 2 2 2 2 2 2 4 6 8 7 6 5 4 4
1 0 1 1 2 2 2 3 3 2 2 2 2 3 2 3 3 3 3 1 2 2 2 2 2 2 1 1 2 3 2 2 2 2 2 3 4 4 6 8 7 5 4
0 0 1 1 2 2 5 5 4 3 2 3 2 2 2 1 0 0 2 3 3 2 2 2 2 2 2 3 2 3 3 3 3 1 3 3 3 3 3 3 5 6 5
1 1 1 2 2 3 4 3 4 4 3 2 2 2 3 2 1 1 1 3 2 2 3 4 3 3 3 2 3 4 3 4 3 2 3 4 3 3 3 3 7 7 7
1 0 1 2 2 2 3 3 3 3 2 2 2 2 2 2 3 3 2 2 2 2 3 4 3 3 2 2 4 4 3 4 4 3 3 4 3 3 3 2 8 8 7
0 0 1 1 1 2 3 3 4 2 1 1 1 2 2 1 4 4 2 2 2 1 2 1 2 2 2 3 4 4 3 4 4 2 2 4 3 3 3 3 5 10 10
0 0 1 2 2 2 3 2 4 2 1 1 1 1 2 3 3 3 2 2 2 1 1 1 1 3 3 4 5 5 4 4 4 3 1 3 4 4 4 3 3 4 6
Wind_Direction
68 69 77 75 81 100 139 154 126 128 189 194 206 202 225 225 216 214 154 164 181 189 194 194 195 197 197 202 205 202 200 200 195 191 188 188 190 190 191 189 182 183 184
59 54 89 73 60 45 19 8 115 176 179 124 196 190 245 231 188 216 180 167 179 185 190 194 199 203 203 204 205 202 200 198 190 188 187 189 191 189 187 182 182 185 187
50 33 56 67 53 34 28 30 32 53 110 132 136 159 174 134 106 174 187 179 171 173 180 184 193 196 195 199 198 195 190 182 179 183 185 185 185 182 181 184 187 187 188
39 18 37 55 39 20 28 29 9 33 61 67 70 47 62 102 122 174 173 165 174 173 163 164 173 178 179 185 184 181 178 173 172 177 178 176 177 179 182 186 188 189 189
43 23 29 37 8 14 16 8 37 19 50 55 77 90 63 79 102 126 136 145 154 181 167 155 165 169 170 174 173 172 171 171 174 176 176 176 177 180 184 186 186 185 186
42 16 57 38 1 21 18 26 26 33 27 42 40 62 51 78 114 102 136 119 151 168 161 159 172 167 164 161 158 160 163 168 176 178 178 180 181 182 186 191 194 193 191
36 22 23 40 8 28 17 16 11 59 55 45 80 111 121 114 95 94 74 67 100 135 142 158 178 157 157 159 156 155 160 168 172 176 179 180 182 183 186 192 197 197 196
28 42 28 9 30 33 29 15 0 359 28 24 326 301 156 141 135 96 96 116 94 116 142 145 132 141 164 164 139 150 161 167 173 175 177 180 185 187 189 195 197 200 201
41 38 34 20 18 9 39 7 349 4 7 19 352 329 329 22 96 121 110 96 97 105 128 136 143 140 152 146 144 147 152 162 173 178 178 181 185 188 192 198 202 203 200
50 55 48 30 4 7 23 338 21 333 313 331 26 342 344 358 310 136 134 113 128 131 122 137 143 139 143 150 126 117 134 150 156 170 177 178 181 188 195 199 201 202 200
55 46 38 27 8 359 5 351 354 330 321 324 335 336 344 280 274 288 56 55 93 114 142 161 156 147 150 150 146 118 120 121 132 150 169 185 191 195 197 199 201 201 200
68 49 34 15 354 357 357 337 332 337 335 336 324 328 319 323 317 332 227 226 45 150 171 167 184 175 173 161 139 111 128 130 131 138 162 188 207 212 205 200 201 201 201
69 46 15 1 351 348 339 334 337 335 335 321 311 313 313 324 315 289 259 258 265 220 165 186 171 200 177 168 148 131 141 135 128 139 152 182 215 222 211 200 198 198 197
36 27 358 348 337 328 329 332 318 320 326 314 317 315 302 305 290 259 260 253 248 227 182 127 140 167 150 169 118 162 149 138 144 161 172 179 200 205 195 188 185 188 190
337 21 314 313 324 331 328 316 332 323 322 304 303 293 295 313 290 275 269 279 275 270 239 167 171 138 184 152 131 183 171 143 160 172 172 158 151 150 151 164 174 177 174
351 308 293 312 317 321 314 304 298 328 312 309 309 326 312 309 304 278 273 279 284 282 284 324 357 33 18 311 142 210 184 154 162 166 166 161 161 159 154 152 160 167 172
343 317 310 302 302 313 315 305 300 311 307 311 306 308 296 310 296 279 265 264 272 269 262 291 10 72 72 311 234 243 224 211 160 152 156 157 156 153 160 163 159 160 171
231 10 340 315 299 314 321 307 302 318 310 309 311 308 294 275 267 281 275 273 272 281 266 273 289 256 208 231 253 255 237 216 201 150 159 166 164 164 170 168 168 171 177
252 347 9 347 332 333 335 327 324 322 313 311 311 307 302 299 288 278 267 263 255 240 249 242 253 292 270 273 265 255 244 251 241 165 168 174 172 177 179 174 170 172 178
225 280 340 352 340 334 353 341 322 307 308 316 318 313 306 298 287 271 247 241 246 246 237 245 244 236 244 266 261 258 242 215 248 240 194 185 175 185 185 181 177 175 179
224 235 303 326 319 310 4 353 326 304 298 303 314 311 316 333 340 321 309 280 240 241 238 239 242 246 231 251 265 266 255 249 229 240 255 229 197 202 190 185 182 182 188
253 299 292 305 313 346 30 1 329 322 308 297 303 302 290 282 10 101 352 341 316 264 262 261 255 248 250 257 266 268 270 264 262 233 264 254 240 232 221 201 158 173 189
198 259 298 312 328 8 27 1 335 308 305 318 319 318 311 348 325 285 187 203 225 254 264 269 267 268 263 263 274 263 263 280 293 303 276 265 245 240 228 163 153 174 189
244 280 314 315 319 9 29 345 315 278 297 319 315 319 326 335 356 328 274 243 223 204 226 245 269 276 288 295 274 271 269 257 246 233 249 264 265 261 247 197 162 178 190
281 342 337 324 333 14 34 352 311 284 289 297 303 327 326 329 19 342 287 259 247 203 124 70 345 334 341 302 287 270 257 259 257 236 230 268 280 278 263 241 182 182 194
90 33 49 2 348 360 41 3 315 293 310 304 309 324 39 19 30 346 286 271 261 301 308 188 210 222 229 217 225 253 264 267 273 265 216 259 265 272 269 253 242 206 203